Location: Caracas
(10.5033°N, 66.8422°W)
Time: 17:35:20
(UTC-04:00)

N. Korean satellite - Pass Details

Date: 16 November 2017
Orbit: 460 x 515 km, 97.2° (Epoch: 17 November)

Event Time Altitude Azimuth Distance (km) Brightness Sun altitude
Rises 18:50:49 0° 172° (S) 2,471 10.3 -12.4°
Reaches altitude 10° 18:52:52 10° 174° (S) 1,597 9.3 -12.9°
Maximum altitude 18:56:16 73° 259° (W) 481 6.6 -13.7°
Drops below altitude 10° 18:59:41 10° 345° (NNW) 1,602 9.2 -14.5°
Sets 19:01:44 0° 347° (NNW) 2,481 10.1 -15.0°
